ARIANE 2 DEB, 27042

Orbit data source: Space-Track

ARIANE 2 DEB, 27042 is space debris in HEO originally from a launch on Fri, 27 Jan 1989 UTC launched from the French Guiana (FRGUI). Debris objects in space refer to the collection of defunct objects orbiting the Earth. Examples of debris include non-operational satellites, rocket bodies, and fragments generated from explosions, collisions, or faulty payload assembly.

Loading next visibility...
Identifier
27042, 1989-006X
Orbit
HEO
Country
Flag of FRFR
Related business
Manufacturer
EADS/LV
Mission
Spacecraft
Bus & Motor
Unknown
Mass
Unknown
Launch date (UTC)
1989-01-27 (37 years ago)
Launch vehicle
Unknown
Launch site
French Guiana (FRGUI)
Object type
Payload
Rocket body
Debris
Shape & HBR
Unknown shape, 0.8 m
Radar Cross Section
Medium (>0.1 m² and <1 m²)

Expand to show TLE details & history
Last TLE update: 2 days ago

TLE from 2 days ago
0 ARIANE 2 DEB
1 27042U 89006X   26171.45106560 -.00000049  00000-0 -72584-4 0  9997
2 27042   7.8990 261.9443 7111482  75.1548 294.2083  2.25337965101577
Epoch: 2026-06-20T10:49Z
TLE epoch observation values (Epoch: 2026-06-20T10:49:32.067Z)
Latitude
-7.44481°
Longitude
121.20462°
Altitude
22,717.63 km
Speed
3.344 km/s
True Right ascension
12h 49m 00s
True Declination
-7° 26' 02"
Sunlit
Object was in daylight at epoch
Visualization orbit readout
Latitude
Unknown
Longitude
Unknown
Altitude
Unknown
Speed
Unknown
Apparent Right ascension
Unknown
Apparent Declination
Unknown
Sunlit
N/A
Visualization observer readout
Local Sidereal Time
04:00:19
Azimuth
Unknown
Elevation
Unknown
Doppler factor
Unknown
Orbital elements
Apogee altitude
35,683.746 km
Perigee altitude
722.154 km
Semi-major axis
24,581.087 km
Eccentricity
0.71115
Inclination
7.899°
RAAN
261.9443°
Arg. of periapsis
75.1548°
True anomaly
214.92168°
Mean anomaly
294.2083°
Eccentric anomaly
254.87415°
Mean motion
0.56317 °/min
Orbital period
639.24 mins
BSTAR
-0.000072584
Loading maneuver chart data...
Computing Atmospheric mass density...
Loading historical data...
Loading historical data...
Loading historical data...
Loading historical data...
Loading historical data...
Loading historical data...
Loading historical data...

Documentation

Showing up to 5 results
|